Wetterdaten: Mittwoch, 18.03.2015
Datum Zeit Auen-Temp. A-Temp. 2 Luftfeuchte Luftfeuchte Luftdruck Regen Wind Richtung Richtung Taupunkt Windchill Windben
18.03.2015 00:00 2,6 C 3,4 C 59 % 59 % 1023,7 hPa 0,0 l/m 0,0 km/h (0 Bft) S 180 -3,8 C 1,9 C 0,0 km/h (0 Bft)
18.03.2015 00:05 2,6 C 3,4 C 59 % 59 % 1023,7 hPa 0,0 l/m 0,0 km/h (0 Bft) S 180 -3,8 C 1,9 C 0,0 km/h (0 Bft)
18.03.2015 00:10 2,5 C 3,3 C 59 % 59 % 1023,7 hPa 0,0 l/m 0,0 km/h (0 Bft) S 180 -3,9 C 1,9 C 0,0 km/h (0 Bft)
18.03.2015 00:15 2,3 C 3,2 C 59 % 59 % 1023,7 hPa 0,0 l/m 0,0 km/h (0 Bft) S 180 -4,0 C 1,8 C 0,0 km/h (0 Bft)
18.03.2015 00:20 2,2 C 3,1 C 60 % 60 % 1023,7 hPa 0,0 l/m 0,0 km/h (0 Bft) S 180 -3,9 C 1,7 C 0,0 km/h (0 Bft)
18.03.2015 00:25 2,3 C 3,0 C 60 % 60 % 1023,4 hPa 0,0 l/m 0,0 km/h (0 Bft) S 180 -4,0 C 1,6 C 0,0 km/h (0 Bft)
18.03.2015 00:30 2,3 C 3,0 C 60 % 60 % 1023,4 hPa 0,0 l/m 0,0 km/h (0 Bft) S 180 -4,0 C 1,6 C 0,0 km/h (0 Bft)
18.03.2015 00:35 2,3 C 3,0 C 60 % 60 % 1023,4 hPa 0,0 l/m 0,0 km/h (0 Bft) S 180 -4,0 C 1,5 C 0,0 km/h (0 Bft)
18.03.2015 00:40 2,2 C 3,0 C 60 % 60 % 1023,4 hPa 0,0 l/m 0,0 km/h (0 Bft) S 180 -4,0 C 1,5 C 0,0 km/h (0 Bft)
18.03.2015 00:45 2,2 C 2,7 C 62 % 62 % 1023,8 hPa 0,0 l/m 0,0 km/h (0 Bft) S 180 -3,8 C 1,5 C 0,0 km/h (0 Bft)
18.03.2015 00:50 2,2 C 2,7 C 62 % 62 % 1023,8 hPa 0,0 l/m 0,0 km/h (0 Bft) S 180 -3,8 C 1,5 C 0,0 km/h (0 Bft)
18.03.2015 00:55 1,9 C 2,6 C 62 % 62 % 1023,8 hPa 0,0 l/m 0,0 km/h (0 Bft) S 180 -3,9 C 1,3 C 0,0 km/h (0 Bft)
18.03.2015 01:00 1,9 C 2,6 C 63 % 63 % 1023,8 hPa 0,0 l/m 0,0 km/h (0 Bft) S 180 -3,7 C 1,3 C 0,0 km/h (0 Bft)
18.03.2015 01:05 2,0 C 2,7 C 63 % 63 % 1023,7 hPa 0,0 l/m 0,0 km/h (0 Bft) S 180 -3,6 C 1,3 C 0,0 km/h (0 Bft)
18.03.2015 01:10 2,2 C 2,9 C 63 % 63 % 1023,7 hPa 0,0 l/m 0,0 km/h (0 Bft) S 180 -3,4 C 1,6 C 0,0 km/h (0 Bft)
18.03.2015 01:15 2,6 C 3,0 C 62 % 62 % 1023,7 hPa 0,0 l/m 0,0 km/h (0 Bft) S 180 -3,6 C 1,7 C 0,0 km/h (0 Bft)
18.03.2015 01:20 2,7 C 3,1 C 62 % 62 % 1023,7 hPa 0,0 l/m 0,0 km/h (0 Bft) S 180 -3,5 C 1,8 C 0,0 km/h (0 Bft)
18.03.2015 01:25 2,5 C 3,2 C 62 % 62 % 1023,5 hPa 0,0 l/m 0,0 km/h (0 Bft) S 180 -3,4 C 1,8 C 0,0 km/h (0 Bft)
18.03.2015 01:30 2,6 C 3,3 C 62 % 62 % 1023,5 hPa 0,0 l/m 0,0 km/h (0 Bft) S 180 -3,3 C 1,9 C 0,0 km/h (0 Bft)
18.03.2015 01:35 2,6 C 3,3 C 62 % 62 % 1023,5 hPa 0,0 l/m 0,0 km/h (0 Bft) W 270 -3,3 C 1,9 C 0,0 km/h (0 Bft)
18.03.2015 01:40 2,5 C 3,3 C 62 % 62 % 1023,5 hPa 0,0 l/m 0,0 km/h (0 Bft) W 270 -3,3 C 1,7 C 0,0 km/h (0 Bft)
18.03.2015 01:45 2,1 C 3,1 C 61 % 61 % 1023,3 hPa 0,0 l/m 0,0 km/h (0 Bft) W 270 -3,7 C 1,6 C 0,0 km/h (0 Bft)
18.03.2015 01:50 2,4 C 3,2 C 62 % 62 % 1023,3 hPa 0,0 l/m 0,0 km/h (0 Bft) W 270 -3,4 C 1,5 C 0,0 km/h (0 Bft)
18.03.2015 01:55 2,8 C 3,4 C 62 % 62 % 1023,3 hPa 0,0 l/m 0,0 km/h (0 Bft) S 180 -3,2 C 1,7 C 0,0 km/h (0 Bft)
18.03.2015 02:00 3,0 C 3,6 C 62 % 62 % 1023,3 hPa 0,0 l/m 0,0 km/h (0 Bft) S 180 -3,0 C 1,9 C 0,0 km/h (0 Bft)
18.03.2015 02:05 2,6 C 3,6 C 61 % 61 % 1023,2 hPa 0,0 l/m 0,0 km/h (0 Bft) W-SW 247 -3,2 C 1,8 C 0,0 km/h (0 Bft)
18.03.2015 02:10 2,3 C 3,4 C 61 % 61 % 1023,2 hPa 0,0 l/m 0,0 km/h (0 Bft) W-SW 247 -3,4 C 1,5 C 0,0 km/h (0 Bft)
18.03.2015 02:15 1,8 C 3,0 C 61 % 61 % 1023,2 hPa 0,0 l/m 0,0 km/h (0 Bft) W-SW 247 -3,8 C 1,1 C 0,0 km/h (0 Bft)
18.03.2015 02:20 1,8 C 2,9 C 62 % 62 % 1023,2 hPa 0,0 l/m 0,0 km/h (0 Bft) W-SW 247 -3,6 C 0,8 C 0,0 km/h (0 Bft)
18.03.2015 02:25 1,8 C 2,7 C 63 % 63 % 1023,4 hPa 0,0 l/m 0,0 km/h (0 Bft) W-SW 247 -3,6 C 0,7 C 0,0 km/h (0 Bft)
18.03.2015 02:30 1,5 C 2,5 C 63 % 63 % 1023,4 hPa 0,0 l/m 0,0 km/h (0 Bft) W-SW 247 -3,8 C 0,7 C 0,0 km/h (0 Bft)
18.03.2015 02:35 1,6 C 2,5 C 63 % 63 % 1023,4 hPa 0,0 l/m 0,0 km/h (0 Bft) W-SW 247 -3,8 C 0,5 C 0,0 km/h (0 Bft)
18.03.2015 02:40 1,3 C 2,4 C 63 % 63 % 1023,4 hPa 0,0 l/m 0,0 km/h (0 Bft) W-SW 247 -3,9 C 0,3 C 0,0 km/h (0 Bft)
18.03.2015 02:45 1,1 C 2,2 C 63 % 63 % 1023,3 hPa 0,0 l/m 0,0 km/h (0 Bft) W-SW 247 -4,1 C 0,0 C 0,0 km/h (0 Bft)
18.03.2015 02:50 1,1 C 2,2 C 64 % 64 % 1023,3 hPa 0,0 l/m 0,0 km/h (0 Bft) W-SW 247 -3,9 C -0,3 C 0,0 km/h (0 Bft)
18.03.2015 02:55 0,9 C 2,0 C 64 % 64 % 1023,3 hPa 0,0 l/m 0,0 km/h (0 Bft) W-SW 247 -4,1 C -0,3 C 0,0 km/h (0 Bft)
18.03.2015 03:00 1,2 C 2,0 C 64 % 64 % 1023,3 hPa 0,0 l/m 0,0 km/h (0 Bft) W-SW 247 -4,1 C -0,3 C 0,0 km/h (0 Bft)
18.03.2015 03:05 0,7 C 1,6 C 64 % 64 % 1023,2 hPa 0,0 l/m 0,0 km/h (0 Bft) W-SW 247 -4,5 C -0,5 C 0,0 km/h (0 Bft)
18.03.2015 03:10 2,1 C 2,1 C 65 % 65 % 1023,2 hPa 0,0 l/m 1,6 km/h (1 Bft) SW 225 -3,8 C -0,2 C 7,9 km/h (2 Bft)
18.03.2015 03:15 1,6 C 2,0 C 65 % 65 % 1023,2 hPa 0,0 l/m 1,8 km/h (1 Bft) O-SO 112 -3,9 C 0,4 C 1,6 km/h (1 Bft)
18.03.2015 03:20 1,3 C 1,8 C 65 % 65 % 1023,2 hPa 0,0 l/m 0,8 km/h (0 Bft) O-NO 67 -4,1 C 0,3 C 8,7 km/h (2 Bft)
18.03.2015 03:25 1,1 C 1,8 C 66 % 66 % 1023,3 hPa 0,0 l/m 0,3 km/h (0 Bft) O-SO 112 -3,9 C 0,2 C 0,0 km/h (0 Bft)
18.03.2015 03:30 1,3 C 1,9 C 66 % 66 % 1023,3 hPa 0,0 l/m 0,8 km/h (0 Bft) S 180 -3,8 C 0,0 C 4,8 km/h (1 Bft)
18.03.2015 03:35 1,7 C 2,2 C 65 % 65 % 1023,3 hPa 0,0 l/m 1,0 km/h (0 Bft) SW 225 -3,7 C 0,4 C 0,0 km/h (0 Bft)
18.03.2015 03:40 1,3 C 2,1 C 65 % 65 % 1023,3 hPa 0,0 l/m 0,8 km/h (0 Bft) S-SO 157 -3,8 C 0,2 C 0,0 km/h (0 Bft)
18.03.2015 03:45 1,0 C 1,8 C 66 % 66 % 1023,3 hPa 0,0 l/m 0,0 km/h (0 Bft) SO 135 -3,9 C 0,0 C 0,0 km/h (0 Bft)
18.03.2015 03:50 0,8 C 1,5 C 66 % 66 % 1023,3 hPa 0,0 l/m 0,0 km/h (0 Bft) SO 135 -4,1 C 0,0 C 0,0 km/h (0 Bft)
18.03.2015 03:55 0,6 C 1,4 C 66 % 66 % 1023,3 hPa 0,0 l/m 0,0 km/h (0 Bft) SO 135 -4,2 C -0,4 C 0,0 km/h (0 Bft)
18.03.2015 04:00 0,4 C 1,2 C 66 % 66 % 1023,3 hPa 0,0 l/m 0,0 km/h (0 Bft) SO 135 -4,4 C -0,4 C 0,0 km/h (0 Bft)
18.03.2015 04:05 0,5 C 1,1 C 67 % 67 % 1023,3 hPa 0,0 l/m 0,0 km/h (0 Bft) SO 135 -4,3 C -0,6 C 0,0 km/h (0 Bft)
18.03.2015 04:10 0,3 C 1,0 C 67 % 67 % 1023,3 hPa 0,0 l/m 0,0 km/h (0 Bft) SO 135 -4,4 C -0,7 C 0,0 km/h (0 Bft)
18.03.2015 04:15 0,1 C 0,9 C 67 % 67 % 1023,3 hPa 0,0 l/m 0,0 km/h (0 Bft) SO 135 -4,5 C -0,9 C 0,0 km/h (0 Bft)
18.03.2015 04:20 0,5 C 0,9 C 68 % 68 % 1023,3 hPa 0,0 l/m 0,0 km/h (0 Bft) SO 135 -4,3 C -0,8 C 0,0 km/h (0 Bft)
18.03.2015 04:25 1,3 C 1,3 C 68 % 68 % 1023,4 hPa 0,0 l/m 0,0 km/h (0 Bft) S-SO 157 -3,9 C -0,3 C 0,0 km/h (0 Bft)
18.03.2015 04:30 1,3 C 1,5 C 68 % 68 % 1023,4 hPa 0,0 l/m 0,0 km/h (0 Bft) O-SO 112 -3,7 C 0,0 C 0,0 km/h (0 Bft)
18.03.2015 04:35 1,3 C 1,8 C 68 % 68 % 1023,4 hPa 0,0 l/m 0,0 km/h (0 Bft) O 90 -3,5 C 0,2 C 0,0 km/h (0 Bft)
18.03.2015 04:40 1,6 C 2,1 C 67 % 67 % 1023,4 hPa 0,0 l/m 0,0 km/h (0 Bft) O-SO 112 -3,4 C 0,3 C 0,0 km/h (0 Bft)
18.03.2015 04:45 1,8 C 2,4 C 67 % 67 % 1023,1 hPa 0,0 l/m 0,0 km/h (0 Bft) SO 135 -3,1 C 0,6 C 0,0 km/h (0 Bft)
18.03.2015 04:50 1,8 C 2,5 C 67 % 67 % 1023,1 hPa 0,0 l/m 0,0 km/h (0 Bft) SO 135 -3,0 C 0,7 C 0,0 km/h (0 Bft)
18.03.2015 04:55 1,4 C 2,4 C 67 % 67 % 1023,1 hPa 0,0 l/m 0,0 km/h (0 Bft) O-SO 112 -3,1 C 0,7 C 0,0 km/h (0 Bft)
18.03.2015 05:00 1,3 C 2,3 C 66 % 66 % 1023,1 hPa 0,0 l/m 0,0 km/h (0 Bft) O-SO 112 -3,4 C 0,5 C 0,0 km/h (0 Bft)
18.03.2015 05:05 1,2 C 2,1 C 66 % 66 % 1023,4 hPa 0,0 l/m 0,0 km/h (0 Bft) O-NO 67 -3,6 C 0,3 C 0,0 km/h (0 Bft)
18.03.2015 05:10 1,1 C 2,0 C 66 % 66 % 1023,4 hPa 0,0 l/m 0,0 km/h (0 Bft) O-NO 67 -3,7 C 0,1 C 0,0 km/h (0 Bft)
18.03.2015 05:15 0,8 C 1,8 C 67 % 67 % 1023,4 hPa 0,0 l/m 0,0 km/h (0 Bft) NO 45 -3,7 C -0,2 C 0,0 km/h (0 Bft)
18.03.2015 05:20 0,7 C 1,5 C 67 % 67 % 1023,4 hPa 0,0 l/m 0,0 km/h (0 Bft) NO 45 -3,9 C -0,4 C 0,0 km/h (0 Bft)
18.03.2015 05:25 0,7 C 1,5 C 67 % 67 % 1023,3 hPa 0,0 l/m 0,0 km/h (0 Bft) NO 45 -3,9 C -0,5 C 0,0 km/h (0 Bft)
18.03.2015 05:30 0,7 C 1,4 C 67 % 67 % 1023,3 hPa 0,0 l/m 0,0 km/h (0 Bft) O-NO 67 -4,0 C -0,6 C 0,0 km/h (0 Bft)
18.03.2015 05:35 0,8 C 1,5 C 67 % 67 % 1023,3 hPa 0,0 l/m 0,0 km/h (0 Bft) NO 45 -3,9 C -0,5 C 0,0 km/h (0 Bft)
18.03.2015 05:40 0,7 C 1,4 C 67 % 67 % 1023,3 hPa 0,0 l/m 0,0 km/h (0 Bft) O-NO 67 -4,0 C -0,6 C 0,0 km/h (0 Bft)
18.03.2015 05:45 1,0 C 1,6 C 67 % 67 % 1023,3 hPa 0,0 l/m 0,0 km/h (0 Bft) NO 45 -3,9 C -0,5 C 0,0 km/h (0 Bft)
18.03.2015 05:50 0,7 C 1,6 C 67 % 67 % 1023,3 hPa 0,0 l/m 0,0 km/h (0 Bft) NO 45 -3,9 C -0,6 C 0,0 km/h (0 Bft)
18.03.2015 05:55 0,4 C 1,3 C 67 % 67 % 1023,3 hPa 0,0 l/m 0,0 km/h (0 Bft) NO 45 -4,1 C -0,7 C 0,0 km/h (0 Bft)
18.03.2015 06:00 0,3 C 1,2 C 67 % 67 % 1023,3 hPa 0,0 l/m 0,0 km/h (0 Bft) O 90 -4,2 C -0,9 C 0,0 km/h (0 Bft)
18.03.2015 06:05 0,5 C 1,2 C 67 % 67 % 1023,6 hPa 0,0 l/m 0,0 km/h (0 Bft) O 90 -4,2 C -1,0 C 0,0 km/h (0 Bft)
18.03.2015 06:10 0,4 C 1,2 C 67 % 67 % 1023,6 hPa 0,0 l/m 0,0 km/h (0 Bft) NO 45 -4,2 C -1,0 C 0,0 km/h (0 Bft)
18.03.2015 06:15 0,1 C 0,9 C 68 % 68 % 1023,6 hPa 0,0 l/m 0,0 km/h (0 Bft) O-SO 112 -4,3 C -1,2 C 0,0 km/h (0 Bft)
18.03.2015 06:20 0,5 C 1,0 C 68 % 68 % 1023,6 hPa 0,0 l/m 0,0 km/h (0 Bft) O-SO 112 -4,2 C -1,1 C 0,0 km/h (0 Bft)
18.03.2015 06:25 0,4 C 1,0 C 68 % 68 % 1023,8 hPa 0,0 l/m 0,0 km/h (0 Bft) O-SO 112 -4,2 C -1,0 C 0,0 km/h (0 Bft)
18.03.2015 06:30 0,8 C 1,2 C 68 % 68 % 1023,8 hPa 0,0 l/m 0,0 km/h (0 Bft) N-NW 337 -4,0 C -0,8 C 0,0 km/h (0 Bft)
18.03.2015 06:35 0,9 C 1,4 C 68 % 68 % 1023,8 hPa 0,0 l/m 0,0 km/h (0 Bft) NW 315 -3,8 C -0,6 C 0,0 km/h (0 Bft)
18.03.2015 06:40 0,9 C 1,4 C 68 % 68 % 1023,8 hPa 0,0 l/m 0,2 km/h (0 Bft) O-NO 67 -3,8 C -0,4 C 0,0 km/h (0 Bft)
18.03.2015 06:45 1,0 C 1,4 C 68 % 68 % 1023,8 hPa 0,0 l/m 0,6 km/h (0 Bft) O-SO 112 -3,8 C -0,2 C 0,0 km/h (0 Bft)
18.03.2015 06:50 0,6 C 1,2 C 68 % 68 % 1023,8 hPa 0,0 l/m 1,3 km/h (1 Bft) O 90 -4,0 C 0,0 C 2,9 km/h (1 Bft)
18.03.2015 06:55 0,4 C 0,7 C 69 % 69 % 1023,8 hPa 0,0 l/m 1,0 km/h (0 Bft) O 90 -4,3 C -0,2 C 0,0 km/h (0 Bft)
18.03.2015 07:00 0,6 C 0,9 C 69 % 69 % 1023,8 hPa 0,0 l/m 0,2 km/h (0 Bft) O 90 -4,1 C 0,0 C 0,0 km/h (0 Bft)
18.03.2015 07:05 1,1 C 1,2 C 69 % 69 % 1024,0 hPa 0,0 l/m 0,2 km/h (0 Bft) W 270 -3,8 C 0,1 C 0,0 km/h (0 Bft)
18.03.2015 07:10 1,2 C 1,3 C 69 % 69 % 1024,0 hPa 0,0 l/m 0,3 km/h (0 Bft) W-SW 247 -3,7 C 0,3 C 1,9 km/h (1 Bft)
18.03.2015 07:15 1,2 C 1,4 C 69 % 69 % 1024,0 hPa 0,0 l/m 0,3 km/h (0 Bft) W-SW 247 -3,7 C 0,7 C 0,0 km/h (0 Bft)
18.03.2015 07:20 1,4 C 1,5 C 69 % 69 % 1024,0 hPa 0,0 l/m 0,5 km/h (0 Bft) N 360 -3,6 C 0,9 C 0,0 km/h (0 Bft)
18.03.2015 07:25 1,3 C 1,4 C 69 % 69 % 1023,9 hPa 0,0 l/m 0,5 km/h (0 Bft) O-NO 67 -3,7 C 1,1 C 1,8 km/h (1 Bft)
18.03.2015 07:30 1,4 C 1,5 C 70 % 70 % 1023,9 hPa 0,0 l/m 0,3 km/h (0 Bft) N-NW 337 -3,4 C 1,2 C 0,0 km/h (0 Bft)
18.03.2015 07:35 2,0 C 2,0 C 70 % 70 % 1023,9 hPa 0,0 l/m 0,3 km/h (0 Bft) W 270 -2,9 C 1,5 C 0,0 km/h (0 Bft)
18.03.2015 07:40 2,3 C 2,3 C 69 % 69 % 1023,9 hPa 0,0 l/m 0,3 km/h (0 Bft) O-NO 67 -2,8 C 1,8 C 0,0 km/h (0 Bft)
18.03.2015 07:45 2,6 C 2,6 C 69 % 69 % 1024,0 hPa 0,0 l/m 0,2 km/h (0 Bft) O-NO 67 -2,5 C 2,3 C 1,6 km/h (1 Bft)
18.03.2015 07:50 2,8 C 3,0 C 69 % 69 % 1024,0 hPa 0,0 l/m 0,2 km/h (0 Bft) N-NW 337 -2,1 C 2,6 C 0,0 km/h (0 Bft)
18.03.2015 07:55 2,8 C 3,0 C 68 % 68 % 1024,0 hPa 0,0 l/m 0,2 km/h (0 Bft) N-NW 337 -2,3 C 3,3 C 0,0 km/h (0 Bft)
18.03.2015 08:00 2,8 C 3,1 C 68 % 68 % 1024,0 hPa 0,0 l/m 0,0 km/h (0 Bft) O-NO 67 -2,2 C 5,3 C 0,0 km/h (0 Bft)
18.03.2015 08:05 2,8 C 3,5 C 68 % 68 % 1024,0 hPa 0,0 l/m 0,2 km/h (0 Bft) O-NO 67 -1,8 C 5,3 C 0,0 km/h (0 Bft)
18.03.2015 08:10 2,8 C 3,7 C 68 % 68 % 1024,0 hPa 0,0 l/m 0,2 km/h (0 Bft) O-NO 67 -1,6 C 6,1 C 0,0 km/h (0 Bft)
18.03.2015 08:15 2,8 C 4,2 C 67 % 67 % 1024,0 hPa 0,0 l/m 0,0 km/h (0 Bft) O-NO 67 -1,4 C 9,4 C 0,0 km/h (0 Bft)
18.03.2015 08:20 4,6 C 4,6 C 66 % 66 % 1024,0 hPa 0,0 l/m 0,0 km/h (0 Bft) O-NO 67 -1,2 C 10,9 C 0,0 km/h (0 Bft)
18.03.2015 08:25 5,2 C 5,2 C 65 % 65 % 1024,0 hPa 0,0 l/m 0,0 km/h (0 Bft) O-NO 67 -0,8 C 12,9 C 0,0 km/h (0 Bft)
18.03.2015 08:30 5,6 C 5,6 C 65 % 65 % 1024,0 hPa 0,0 l/m 0,0 km/h (0 Bft) O-NO 67 -0,4 C 13,8 C 0,0 km/h (0 Bft)
18.03.2015 08:35 6,4 C 6,4 C 62 % 62 % 1024,0 hPa 0,0 l/m 0,0 km/h (0 Bft) O-NO 67 -0,3 C 15,3 C 0,0 km/h (0 Bft)
18.03.2015 08:40 6,7 C 6,7 C 62 % 62 % 1024,0 hPa 0,0 l/m 0,0 km/h (0 Bft) O-NO 67 -0,1 C 16,1 C 0,0 km/h (0 Bft)
18.03.2015 08:45 7,1 C 7,1 C 60 % 60 % 1024,2 hPa 0,0 l/m 0,0 km/h (0 Bft) O-NO 67 -0,1 C 17,2 C 0,0 km/h (0 Bft)
18.03.2015 08:50 7,5 C 7,5 C 60 % 60 % 1024,2 hPa 0,0 l/m 0,0 km/h (0 Bft) O-NO 67 0,2 C 17,8 C 0,0 km/h (0 Bft)
18.03.2015 08:55 8,0 C 8,0 C 59 % 59 % 1024,2 hPa 0,0 l/m 0,0 km/h (0 Bft) O-NO 67 0,5 C 18,3 C 0,0 km/h (0 Bft)
18.03.2015 09:00 8,3 C 8,3 C 59 % 59 % 1024,2 hPa 0,0 l/m 0,0 km/h (0 Bft) O-NO 67 0,8 C 18,2 C 0,0 km/h (0 Bft)
18.03.2015 09:05 8,9 C 8,9 C 58 % 58 % 1025,2 hPa 0,0 l/m 0,0 km/h (0 Bft) O-NO 67 1,1 C 18,1 C 0,0 km/h (0 Bft)
18.03.2015 09:10 9,4 C 9,4 C 58 % 58 % 1025,2 hPa 0,0 l/m 0,0 km/h (0 Bft) O-NO 67 1,6 C 18,4 C 0,0 km/h (0 Bft)
18.03.2015 09:15 9,9 C 9,9 C 57 % 57 % 1025,2 hPa 0,0 l/m 0,0 km/h (0 Bft) O-NO 67 1,8 C 18,7 C 0,0 km/h (0 Bft)
18.03.2015 09:20 10,1 C 10,1 C 56 % 56 % 1025,2 hPa 0,0 l/m 0,0 km/h (0 Bft) O-NO 67 1,7 C 19,3 C 0,0 km/h (0 Bft)
18.03.2015 09:25 10,3 C 10,3 C 56 % 56 % 1026,5 hPa 0,0 l/m 0,0 km/h (0 Bft) O-NO 67 1,9 C 20,0 C 0,0 km/h (0 Bft)
18.03.2015 09:30 10,7 C 10,7 C 55 % 55 % 1026,5 hPa 0,0 l/m 0,2 km/h (0 Bft) O-NO 67 2,0 C 20,0 C 2,4 km/h (1 Bft)
18.03.2015 09:35 10,9 C 10,9 C 55 % 55 % 1026,5 hPa 0,0 l/m 0,5 km/h (0 Bft) O-NO 67 2,2 C 20,1 C 1,8 km/h (1 Bft)
18.03.2015 09:40 11,0 C 11,0 C 54 % 54 % 1026,5 hPa 0,0 l/m 0,6 km/h (0 Bft) W-SW 247 2,1 C 19,9 C 0,0 km/h (0 Bft)
18.03.2015 09:45 11,2 C 11,2 C 54 % 54 % 1026,1 hPa 0,0 l/m 0,5 km/h (0 Bft) S 180 2,2 C 20,6 C 0,0 km/h (0 Bft)
18.03.2015 09:50 11,4 C 11,4 C 54 % 54 % 1026,1 hPa 0,0 l/m 0,2 km/h (0 Bft) S 180 2,4 C 20,5 C 0,0 km/h (0 Bft)
18.03.2015 09:55 11,7 C 11,7 C 53 % 53 % 1026,1 hPa 0,0 l/m 0,0 km/h (0 Bft) NW 315 2,4 C 20,9 C 0,0 km/h (0 Bft)
18.03.2015 10:00 11,9 C 11,9 C 53 % 53 % 1026,1 hPa 0,0 l/m 0,8 km/h (0 Bft) W 270 2,6 C 21,2 C 3,4 km/h (1 Bft)
18.03.2015 10:05 11,9 C 11,9 C 52 % 52 % 1026,2 hPa 0,0 l/m 3,2 km/h (1 Bft) W-SW 247 2,4 C 19,9 C 4,7 km/h (1 Bft)
18.03.2015 10:10 11,8 C 11,8 C 51 % 51 % 1026,2 hPa 0,0 l/m 4,3 km/h (1 Bft) W 270 2,0 C 19,3 C 6,0 km/h (2 Bft)
18.03.2015 10:15 11,9 C 11,9 C 50 % 50 % 1026,2 hPa 0,0 l/m 4,7 km/h (1 Bft) NW 315 1,8 C 18,6 C 6,3 km/h (2 Bft)
18.03.2015 10:20 12,0 C 12,0 C 49 % 49 % 1026,2 hPa 0,0 l/m 5,3 km/h (1 Bft) NW 315 1,6 C 18,3 C 11,7 km/h (2 Bft)
18.03.2015 10:25 12,1 C 12,1 C 49 % 49 % 1026,2 hPa 0,0 l/m 5,5 km/h (1 Bft) W-SW 247 1,7 C 18,0 C 5,0 km/h (1 Bft)
18.03.2015 10:30 12,2 C 12,2 C 48 % 48 % 1026,2 hPa 0,0 l/m 5,6 km/h (1 Bft) W-SW 247 1,5 C 17,9 C 12,4 km/h (3 Bft)
18.03.2015 10:35 12,2 C 12,2 C 49 % 49 % 1026,2 hPa 0,0 l/m 6,1 km/h (2 Bft) W-SW 247 1,8 C 18,1 C 8,5 km/h (2 Bft)
18.03.2015 10:40 12,1 C 12,1 C 49 % 49 % 1026,2 hPa 0,0 l/m 6,6 km/h (2 Bft) W 270 1,7 C 17,7 C 12,7 km/h (3 Bft)
18.03.2015 10:45 12,1 C 12,1 C 49 % 49 % 1026,5 hPa 0,0 l/m 7,1 km/h (2 Bft) W-NW 292 1,7 C 17,2 C 7,4 km/h (2 Bft)
18.03.2015 10:50 12,2 C 12,2 C 49 % 49 % 1026,5 hPa 0,0 l/m 6,4 km/h (2 Bft) W 270 1,8 C 17,6 C 12,7 km/h (3 Bft)
18.03.2015 10:55 12,3 C 12,3 C 49 % 49 % 1026,5 hPa 0,0 l/m 5,8 km/h (2 Bft) NW 315 1,9 C 17,8 C 9,7 km/h (2 Bft)
18.03.2015 11:00 12,4 C 12,4 C 49 % 49 % 1026,5 hPa 0,0 l/m 6,0 km/h (2 Bft) W-NW 292 2,0 C 17,9 C 10,6 km/h (2 Bft)
18.03.2015 11:05 12,3 C 12,3 C 49 % 49 % 1026,9 hPa 0,0 l/m 6,8 km/h (2 Bft) W-SW 247 1,9 C 17,6 C 6,4 km/h (2 Bft)
18.03.2015 11:10 12,5 C 12,5 C 49 % 49 % 1026,9 hPa 0,0 l/m 6,8 km/h (2 Bft) W-SW 247 2,1 C 17,8 C 6,3 km/h (2 Bft)
18.03.2015 11:15 12,5 C 12,5 C 49 % 49 % 1026,9 hPa 0,0 l/m 5,8 km/h (2 Bft) W-SW 247 2,1 C 18,4 C 10,1 km/h (2 Bft)
18.03.2015 11:20 12,5 C 12,5 C 49 % 49 % 1026,9 hPa 0,0 l/m 5,8 km/h (2 Bft) W-SW 247 2,1 C 18,4 C 5,0 km/h (1 Bft)
18.03.2015 11:25 12,6 C 12,6 C 49 % 49 % 1026,8 hPa 0,0 l/m 6,3 km/h (2 Bft) W 270 2,2 C 18,4 C 8,0 km/h (2 Bft)
18.03.2015 11:30 12,7 C 12,7 C 49 % 49 % 1026,8 hPa 0,0 l/m 5,6 km/h (1 Bft) W-SW 247 2,3 C 18,7 C 7,9 km/h (2 Bft)
18.03.2015 11:35 12,9 C 12,9 C 49 % 49 % 1026,8 hPa 0,0 l/m 5,0 km/h (1 Bft) W 270 2,5 C 18,9 C 5,8 km/h (2 Bft)
18.03.2015 11:40 13,0 C 13,0 C 49 % 49 % 1026,8 hPa 0,0 l/m 5,5 km/h (1 Bft) W-SW 247 2,5 C 19,0 C 6,1 km/h (2 Bft)
18.03.2015 11:45 13,2 C 13,2 C 49 % 49 % 1026,8 hPa 0,0 l/m 5,6 km/h (1 Bft) W 270 2,7 C 19,2 C 8,0 km/h (2 Bft)
18.03.2015 11:50 13,2 C 13,2 C 49 % 49 % 1026,8 hPa 0,0 l/m 5,3 km/h (1 Bft) W-NW 292 2,7 C 19,3 C 6,1 km/h (2 Bft)
18.03.2015 11:55 13,3 C 13,3 C 49 % 49 % 1026,8 hPa 0,0 l/m 5,6 km/h (1 Bft) W-NW 292 2,8 C 19,2 C 7,9 km/h (2 Bft)
18.03.2015 12:00 13,3 C 13,3 C 49 % 49 % 1026,8 hPa 0,0 l/m 6,1 km/h (2 Bft) W-NW 292 2,8 C 19,1 C 5,8 km/h (2 Bft)
18.03.2015 12:05 13,3 C 13,3 C 48 % 48 % 1027,1 hPa 0,0 l/m 6,6 km/h (2 Bft) W-SW 247 2,5 C 18,9 C 7,4 km/h (2 Bft)
18.03.2015 12:10 13,4 C 13,4 C 48 % 48 % 1027,1 hPa 0,0 l/m 6,6 km/h (2 Bft) W 270 2,6 C 18,8 C 8,7 km/h (2 Bft)
18.03.2015 12:15 13,6 C 13,6 C 48 % 48 % 1027,1 hPa 0,0 l/m 6,6 km/h (2 Bft) NW 315 2,8 C 18,9 C 6,4 km/h (2 Bft)
18.03.2015 12:20 13,6 C 13,6 C 48 % 48 % 1027,1 hPa 0,0 l/m 6,8 km/h (2 Bft) W-SW 247 2,8 C 18,8 C 9,3 km/h (2 Bft)
18.03.2015 12:25 13,6 C 13,6 C 48 % 48 % 1026,8 hPa 0,0 l/m 6,1 km/h (2 Bft) W-NW 292 2,8 C 19,1 C 5,0 km/h (1 Bft)
18.03.2015 12:30 13,7 C 13,7 C 48 % 48 % 1026,8 hPa 0,0 l/m 6,0 km/h (2 Bft) W 270 2,9 C 19,4 C 8,2 km/h (2 Bft)
18.03.2015 12:35 13,7 C 13,7 C 48 % 48 % 1026,8 hPa 0,0 l/m 6,3 km/h (2 Bft) W-SW 247 2,9 C 19,3 C 5,5 km/h (1 Bft)
18.03.2015 12:40 13,8 C 13,8 C 48 % 48 % 1026,8 hPa 0,0 l/m 6,3 km/h (2 Bft) W 270 3,0 C 19,5 C 8,2 km/h (2 Bft)
18.03.2015 12:45 14,0 C 14,0 C 48 % 48 % 1026,2 hPa 0,0 l/m 4,5 km/h (1 Bft) W-NW 292 3,2 C 20,0 C 3,7 km/h (1 Bft)
18.03.2015 12:50 14,1 C 14,1 C 47 % 47 % 1026,2 hPa 0,0 l/m 4,5 km/h (1 Bft) W-NW 292 3,0 C 20,2 C 6,8 km/h (2 Bft)
18.03.2015 12:55 14,2 C 14,2 C 47 % 47 % 1026,2 hPa 0,0 l/m 5,0 km/h (1 Bft) W-NW 292 3,1 C 19,9 C 6,1 km/h (2 Bft)
18.03.2015 13:00 14,3 C 14,3 C 47 % 47 % 1026,2 hPa 0,0 l/m 4,8 km/h (1 Bft) SW 225 3,1 C 19,6 C 9,2 km/h (2 Bft)
18.03.2015 13:05 14,2 C 14,2 C 47 % 47 % 1026,2 hPa 0,0 l/m 4,3 km/h (1 Bft) W 270 3,1 C 18,9 C 4,8 km/h (1 Bft)
18.03.2015 13:10 14,3 C 14,3 C 46 % 46 % 1026,2 hPa 0,0 l/m 4,7 km/h (1 Bft) W 270 2,8 C 18,6 C 6,6 km/h (2 Bft)
18.03.2015 13:15 14,4 C 14,4 C 46 % 46 % 1026,2 hPa 0,0 l/m 4,3 km/h (1 Bft) W 270 2,9 C 18,0 C 3,1 km/h (1 Bft)
18.03.2015 13:20 14,5 C 14,5 C 46 % 46 % 1026,2 hPa 0,0 l/m 4,0 km/h (1 Bft) N-NO 22 3,0 C 17,8 C 7,1 km/h (2 Bft)
18.03.2015 13:25 14,5 C 14,5 C 46 % 46 % 1025,9 hPa 0,0 l/m 4,7 km/h (1 Bft) W-SW 247 3,0 C 17,9 C 5,3 km/h (1 Bft)
18.03.2015 13:30 14,5 C 14,5 C 46 % 46 % 1025,9 hPa 0,0 l/m 5,5 km/h (1 Bft) W 270 3,0 C 18,2 C 6,0 km/h (2 Bft)
18.03.2015 13:35 14,6 C 14,6 C 45 % 45 % 1025,9 hPa 0,0 l/m 5,3 km/h (1 Bft) W 270 2,8 C 18,7 C 5,5 km/h (1 Bft)
18.03.2015 13:40 14,5 C 14,5 C 44 % 44 % 1025,9 hPa 0,0 l/m 5,5 km/h (1 Bft) W 270 2,4 C 19,0 C 4,8 km/h (1 Bft)
18.03.2015 13:45 14,6 C 14,6 C 44 % 44 % 1025,9 hPa 0,0 l/m 5,1 km/h (1 Bft) NW 315 2,5 C 19,6 C 10,3 km/h (2 Bft)
18.03.2015 13:50 14,6 C 14,6 C 44 % 44 % 1025,9 hPa 0,0 l/m 5,0 km/h (1 Bft) W-NW 292 2,5 C 19,8 C 11,1 km/h (2 Bft)
18.03.2015 13:55 14,7 C 14,7 C 43 % 43 % 1025,9 hPa 0,0 l/m 5,0 km/h (1 Bft) W 270 2,3 C 20,2 C 3,7 km/h (1 Bft)
18.03.2015 14:00 14,9 C 14,9 C 43 % 43 % 1025,9 hPa 0,0 l/m 4,2 km/h (1 Bft) N-NW 337 2,4 C 20,5 C 3,1 km/h (1 Bft)
18.03.2015 14:05 14,8 C 14,8 C 43 % 43 % 1025,6 hPa 0,0 l/m 4,3 km/h (1 Bft) W 270 2,3 C 20,7 C 4,2 km/h (1 Bft)
18.03.2015 14:10 14,8 C 14,8 C 42 % 42 % 1025,6 hPa 0,0 l/m 5,3 km/h (1 Bft) W-SW 247 2,0 C 20,5 C 6,1 km/h (2 Bft)
18.03.2015 14:15 14,8 C 14,8 C 42 % 42 % 1025,6 hPa 0,0 l/m 4,8 km/h (1 Bft) W 270 2,0 C 20,5 C 3,5 km/h (1 Bft)
18.03.2015 14:20 14,9 C 14,9 C 42 % 42 % 1025,6 hPa 0,0 l/m 4,7 km/h (1 Bft) W-NW 292 2,1 C 20,6 C 6,8 km/h (2 Bft)
18.03.2015 14:25 14,9 C 14,9 C 42 % 42 % 1024,9 hPa 0,0 l/m 4,7 km/h (1 Bft) W 270 2,1 C 20,6 C 10,1 km/h (2 Bft)
18.03.2015 14:30 14,8 C 14,8 C 42 % 42 % 1024,9 hPa 0,0 l/m 5,3 km/h (1 Bft) W-SW 247 2,0 C 20,4 C 7,1 km/h (2 Bft)
18.03.2015 14:35 14,9 C 14,9 C 42 % 42 % 1024,9 hPa 0,0 l/m 4,7 km/h (1 Bft) W 270 2,1 C 20,5 C 6,1 km/h (2 Bft)
18.03.2015 14:40 14,9 C 14,9 C 42 % 42 % 1024,9 hPa 0,0 l/m 4,5 km/h (1 Bft) W 270 2,1 C 20,5 C 6,3 km/h (2 Bft)
18.03.2015 14:45 14,9 C 14,9 C 42 % 42 % 1024,4 hPa 0,0 l/m 5,5 km/h (1 Bft) NW 315 2,1 C 20,2 C 4,3 km/h (1 Bft)
18.03.2015 14:50 15,0 C 15,0 C 42 % 42 % 1024,4 hPa 0,0 l/m 4,3 km/h (1 Bft) W-SW 247 2,2 C 20,4 C 3,5 km/h (1 Bft)
18.03.2015 14:55 15,0 C 15,0 C 43 % 43 % 1024,4 hPa 0,0 l/m 3,1 km/h (1 Bft) W-SW 247 2,5 C 20,4 C 2,1 km/h (1 Bft)
18.03.2015 15:00 15,1 C 15,1 C 42 % 42 % 1024,4 hPa 0,0 l/m 3,1 km/h (1 Bft) W 270 2,3 C 20,7 C 3,1 km/h (1 Bft)
18.03.2015 15:05 14,9 C 14,9 C 42 % 42 % 1024,0 hPa 0,0 l/m 4,0 km/h (1 Bft) W 270 2,1 C 20,2 C 6,8 km/h (2 Bft)
18.03.2015 15:10 14,9 C 14,9 C 41 % 41 % 1024,0 hPa 0,0 l/m 5,3 km/h (1 Bft) NW 315 1,8 C 19,6 C 7,2 km/h (2 Bft)
18.03.2015 15:15 15,0 C 15,0 C 41 % 41 % 1024,0 hPa 0,0 l/m 5,0 km/h (1 Bft) NW 315 1,9 C 19,4 C 8,7 km/h (2 Bft)
18.03.2015 15:20 15,0 C 15,0 C 41 % 41 % 1024,0 hPa 0,0 l/m 5,0 km/h (1 Bft) W-SW 247 1,9 C 19,4 C 9,2 km/h (2 Bft)
18.03.2015 15:25 15,1 C 15,1 C 41 % 41 % 1023,9 hPa 0,0 l/m 5,0 km/h (1 Bft) W 270 2,0 C 19,6 C 8,9 km/h (2 Bft)
18.03.2015 15:30 15,0 C 15,0 C 40 % 40 % 1023,9 hPa 0,0 l/m 5,1 km/h (1 Bft) W 270 1,5 C 19,6 C 3,9 km/h (1 Bft)
18.03.2015 15:35 15,0 C 15,0 C 41 % 41 % 1023,9 hPa 0,0 l/m 4,2 km/h (1 Bft) W 270 1,9 C 19,8 C 5,6 km/h (1 Bft)
18.03.2015 15:40 15,0 C 15,0 C 40 % 40 % 1023,9 hPa 0,0 l/m 3,7 km/h (1 Bft) W-SW 247 1,5 C 20,0 C 3,5 km/h (1 Bft)
18.03.2015 15:45 14,9 C 14,9 C 41 % 41 % 1023,5 hPa 0,0 l/m 4,7 km/h (1 Bft) W-NW 292 1,8 C 19,6 C 3,9 km/h (1 Bft)
18.03.2015 15:50 14,9 C 14,9 C 41 % 41 % 1023,5 hPa 0,0 l/m 4,2 km/h (1 Bft) W-NW 292 1,8 C 19,4 C 3,9 km/h (1 Bft)
18.03.2015 15:55 15,1 C 15,1 C 41 % 41 % 1023,5 hPa 0,0 l/m 3,1 km/h (1 Bft) W 270 2,0 C 19,6 C 6,8 km/h (2 Bft)
18.03.2015 16:00 14,9 C 14,9 C 41 % 41 % 1023,5 hPa 0,0 l/m 3,5 km/h (1 Bft) W-SW 247 1,8 C 19,2 C 5,5 km/h (1 Bft)
18.03.2015 16:05 14,7 C 14,7 C 42 % 42 % 1023,2 hPa 0,0 l/m 4,3 km/h (1 Bft) W-NW 292 1,9 C 18,1 C 2,4 km/h (1 Bft)
18.03.2015 16:10 14,6 C 14,6 C 42 % 42 % 1023,2 hPa 0,0 l/m 3,5 km/h (1 Bft) N-NW 337 1,8 C 17,5 C 2,1 km/h (1 Bft)
18.03.2015 16:15 14,6 C 14,6 C 42 % 42 % 1023,2 hPa 0,0 l/m 2,9 km/h (1 Bft) N-NO 22 1,8 C 17,2 C 8,7 km/h (2 Bft)
18.03.2015 16:20 14,2 C 14,2 C 44 % 44 % 1023,2 hPa 0,0 l/m 3,5 km/h (1 Bft) N-NO 22 2,1 C 16,6 C 8,4 km/h (2 Bft)
18.03.2015 16:25 13,7 C 13,7 C 47 % 47 % 1023,3 hPa 0,0 l/m 5,1 km/h (1 Bft) N-NO 22 2,6 C 15,6 C 1,9 km/h (1 Bft)
18.03.2015 16:30 13,4 C 13,4 C 48 % 48 % 1023,3 hPa 0,0 l/m 4,5 km/h (1 Bft) O-NO 67 2,6 C 15,0 C 3,4 km/h (1 Bft)
18.03.2015 16:35 13,0 C 13,0 C 49 % 49 % 1023,3 hPa 0,0 l/m 2,9 km/h (1 Bft) O-NO 67 2,5 C 14,4 C 0,0 km/h (0 Bft)
18.03.2015 16:40 13,0 C 13,0 C 49 % 49 % 1023,3 hPa 0,0 l/m 2,4 km/h (1 Bft) N-NO 22 2,5 C 14,5 C 0,0 km/h (0 Bft)
18.03.2015 16:45 13,0 C 13,0 C 49 % 49 % 1023,4 hPa 0,0 l/m 1,6 km/h (1 Bft) N-NO 22 2,5 C 14,7 C 3,2 km/h (1 Bft)
18.03.2015 16:50 13,0 C 13,0 C 49 % 49 % 1023,4 hPa 0,0 l/m 1,4 km/h (1 Bft) N-NO 22 2,5 C 14,9 C 2,3 km/h (1 Bft)
18.03.2015 16:55 12,9 C 12,9 C 51 % 51 % 1023,4 hPa 0,0 l/m 1,3 km/h (1 Bft) O-NO 67 3,0 C 14,9 C 0,0 km/h (0 Bft)
18.03.2015 17:00 12,9 C 12,9 C 51 % 51 % 1023,4 hPa 0,0 l/m 1,0 km/h (0 Bft) NO 45 3,0 C 15,0 C 0,0 km/h (0 Bft)
18.03.2015 17:05 12,8 C 12,8 C 51 % 51 % 1023,4 hPa 0,0 l/m 0,8 km/h (0 Bft) O-NO 67 2,9 C 15,0 C 0,0 km/h (0 Bft)
18.03.2015 17:10 12,8 C 12,8 C 51 % 51 % 1023,4 hPa 0,0 l/m 0,6 km/h (0 Bft) NO 45 2,9 C 15,0 C 0,0 km/h (0 Bft)
18.03.2015 17:15 12,7 C 12,7 C 51 % 51 % 1023,4 hPa 0,0 l/m 0,3 km/h (0 Bft) NO 45 2,8 C 14,4 C 1,8 km/h (1 Bft)
18.03.2015 17:20 12,6 C 12,6 C 52 % 52 % 1023,4 hPa 0,0 l/m 0,3 km/h (0 Bft) NO 45 3,0 C 14,1 C 0,0 km/h (0 Bft)
18.03.2015 17:25 12,5 C 12,5 C 52 % 52 % 1023,4 hPa 0,0 l/m 0,2 km/h (0 Bft) O-NO 67 2,9 C 13,7 C 0,0 km/h (0 Bft)
18.03.2015 17:30 12,3 C 12,4 C 52 % 52 % 1023,4 hPa 0,0 l/m 0,2 km/h (0 Bft) O-NO 67 2,8 C 13,3 C 0,0 km/h (0 Bft)
18.03.2015 17:35 11,7 C 12,2 C 52 % 52 % 1023,4 hPa 0,0 l/m 0,0 km/h (0 Bft) O-NO 67 2,6 C 12,7 C 0,0 km/h (0 Bft)
18.03.2015 17:40 11,3 C 12,1 C 53 % 53 % 1023,4 hPa 0,0 l/m 0,0 km/h (0 Bft) O-NO 67 2,8 C 12,2 C 0,0 km/h (0 Bft)
18.03.2015 17:45 11,1 C 11,7 C 53 % 53 % 1023,5 hPa 0,0 l/m 0,2 km/h (0 Bft) N-NO 22 2,4 C 11,5 C 0,0 km/h (0 Bft)
18.03.2015 17:50 10,6 C 11,4 C 53 % 53 % 1023,5 hPa 0,0 l/m 0,2 km/h (0 Bft) N-NO 22 2,2 C 11,1 C 0,0 km/h (0 Bft)
18.03.2015 17:55 10,4 C 11,2 C 54 % 54 % 1023,5 hPa 0,0 l/m 0,0 km/h (0 Bft) NO 45 2,2 C 10,5 C 0,0 km/h (0 Bft)
18.03.2015 18:00 10,2 C 11,0 C 55 % 55 % 1023,5 hPa 0,0 l/m 0,0 km/h (0 Bft) O-NO 67 2,3 C 10,1 C 0,0 km/h (0 Bft)
18.03.2015 18:05 10,2 C 11,1 C 55 % 55 % 1023,6 hPa 0,0 l/m 0,0 km/h (0 Bft) O-NO 67 2,4 C 9,9 C 0,0 km/h (0 Bft)
18.03.2015 18:10 10,0 C 10,9 C 56 % 56 % 1023,6 hPa 0,0 l/m 0,0 km/h (0 Bft) O-NO 67 2,5 C 9,6 C 0,0 km/h (0 Bft)
18.03.2015 18:15 9,9 C 10,8 C 56 % 56 % 1026,5 hPa 0,0 l/m 1,0 km/h (0 Bft) O-NO 67 2,4 C 9,4 C 2,4 km/h (1 Bft)
18.03.2015 18:20 9,8 C 10,7 C 56 % 56 % 1026,5 hPa 0,0 l/m 1,9 km/h (1 Bft) SO 135 2,3 C 9,3 C 2,9 km/h (1 Bft)
18.03.2015 18:25 9,5 C 10,5 C 57 % 57 % 1026,5 hPa 0,0 l/m 2,3 km/h (1 Bft) SO 135 2,3 C 9,1 C 3,2 km/h (1 Bft)
18.03.2015 18:30 9,4 C 10,3 C 57 % 57 % 1026,5 hPa 0,0 l/m 2,4 km/h (1 Bft) S-SO 157 2,2 C 8,9 C 3,5 km/h (1 Bft)
18.03.2015 18:35 9,3 C 10,2 C 57 % 57 % 1025,9 hPa 0,0 l/m 2,7 km/h (1 Bft) SO 135 2,1 C 8,7 C 3,2 km/h (1 Bft)
18.03.2015 18:40 9,2 C 10,1 C 57 % 57 % 1025,9 hPa 0,0 l/m 2,9 km/h (1 Bft) S-SO 157 2,0 C 8,7 C 3,2 km/h (1 Bft)
18.03.2015 18:45 8,9 C 9,9 C 58 % 58 % 1021,1 hPa 0,0 l/m 2,7 km/h (1 Bft) SO 135 2,0 C 8,5 C 1,8 km/h (1 Bft)
18.03.2015 18:50 8,4 C 9,5 C 58 % 58 % 1021,1 hPa 0,0 l/m 1,9 km/h (1 Bft) SO 135 1,7 C 8,2 C 0,0 km/h (0 Bft)
18.03.2015 18:55 8,1 C 9,2 C 58 % 58 % 1021,1 hPa 0,0 l/m 0,8 km/h (0 Bft) SO 135 1,4 C 7,7 C 1,8 km/h (1 Bft)
18.03.2015 19:00 7,9 C 9,0 C 58 % 58 % 1021,1 hPa 0,0 l/m 0,3 km/h (0 Bft) S-SO 157 1,2 C 7,4 C 0,0 km/h (0 Bft)
18.03.2015 19:05 7,5 C 8,7 C 59 % 59 % 1021,5 hPa 0,0 l/m 0,2 km/h (0 Bft) SO 135 1,1 C 7,0 C 2,1 km/h (1 Bft)
18.03.2015 19:10 7,4 C 8,5 C 59 % 59 % 1021,5 hPa 0,0 l/m 0,2 km/h (0 Bft) S-SO 157 1,0 C 6,7 C 0,0 km/h (0 Bft)
18.03.2015 19:15 6,9 C 8,1 C 59 % 59 % 1021,5 hPa 0,0 l/m 0,2 km/h (0 Bft) SO 135 0,6 C 6,4 C 0,0 km/h (0 Bft)
18.03.2015 19:20 7,1 C 8,0 C 59 % 59 % 1021,5 hPa 0,0 l/m 0,3 km/h (0 Bft) SO 135 0,5 C 6,1 C 2,9 km/h (1 Bft)
18.03.2015 19:25 6,8 C 7,7 C 60 % 60 % 1021,8 hPa 0,0 l/m 0,3 km/h (0 Bft) SO 135 0,4 C 6,2 C 0,0 km/h (0 Bft)
18.03.2015 19:30 7,2 C 7,9 C 61 % 61 % 1021,8 hPa 0,0 l/m 0,3 km/h (0 Bft) SO 135 0,9 C 6,4 C 0,0 km/h (0 Bft)
18.03.2015 19:35 7,6 C 8,1 C 62 % 62 % 1021,8 hPa 0,0 l/m 1,0 km/h (0 Bft) S-SO 157 1,3 C 6,8 C 3,4 km/h (1 Bft)
18.03.2015 19:40 7,9 C 8,3 C 62 % 62 % 1021,8 hPa 0,0 l/m 1,9 km/h (1 Bft) S-SO 157 1,5 C 7,1 C 2,4 km/h (1 Bft)
18.03.2015 19:45 7,9 C 8,2 C 62 % 62 % 1021,7 hPa 0,0 l/m 2,7 km/h (1 Bft) SO 135 1,4 C 7,5 C 3,1 km/h (1 Bft)
18.03.2015 19:50 7,4 C 8,0 C 62 % 62 % 1021,7 hPa 0,0 l/m 1,8 km/h (1 Bft) O-SO 112 1,2 C 7,5 C 0,0 km/h (0 Bft)
18.03.2015 19:55 6,6 C 7,3 C 63 % 63 % 1021,7 hPa 0,0 l/m 1,1 km/h (1 Bft) SO 135 0,7 C 7,0 C 2,7 km/h (1 Bft)
18.03.2015 20:00 7,0 C 7,3 C 63 % 63 % 1021,7 hPa 0,0 l/m 1,1 km/h (1 Bft) S-SO 157 0,7 C 6,9 C 0,0 km/h (0 Bft)
18.03.2015 20:05 6,6 C 7,3 C 63 % 63 % 1021,7 hPa 0,0 l/m 0,5 km/h (0 Bft) S-SO 157 0,7 C 6,7 C 0,0 km/h (0 Bft)
18.03.2015 20:10 6,6 C 7,3 C 63 % 63 % 1021,7 hPa 0,0 l/m 0,0 km/h (0 Bft) S-SO 157 0,7 C 6,5 C 0,0 km/h (0 Bft)
18.03.2015 20:15 6,3 C 7,2 C 63 % 63 % 1021,7 hPa 0,0 l/m 0,0 km/h (0 Bft) S-SO 157 0,6 C 6,3 C 0,0 km/h (0 Bft)
18.03.2015 20:20 6,1 C 7,0 C 63 % 63 % 1021,7 hPa 0,0 l/m 0,0 km/h (0 Bft) S-SO 157 0,4 C 6,1 C 0,0 km/h (0 Bft)
18.03.2015 20:25 5,9 C 6,7 C 63 % 63 % 1021,8 hPa 0,0 l/m 0,0 km/h (0 Bft) S-SO 157 0,2 C 5,9 C 0,0 km/h (0 Bft)
18.03.2015 20:30 5,7 C 6,6 C 64 % 64 % 1021,8 hPa 0,0 l/m 0,0 km/h (0 Bft) S-SO 157 0,3 C 5,7 C 0,0 km/h (0 Bft)
18.03.2015 20:35 5,5 C 6,5 C 64 % 64 % 1021,8 hPa 0,0 l/m 0,0 km/h (0 Bft) S-SO 157 0,2 C 5,4 C 0,0 km/h (0 Bft)
18.03.2015 20:40 5,6 C 6,4 C 64 % 64 % 1021,8 hPa 0,0 l/m 0,0 km/h (0 Bft) S-SO 157 0,1 C 5,3 C 0,0 km/h (0 Bft)
18.03.2015 20:45 6,2 C 6,8 C 65 % 65 % 1021,8 hPa 0,0 l/m 0,3 km/h (0 Bft) S 180 0,7 C 5,3 C 3,1 km/h (1 Bft)
18.03.2015 20:50 6,4 C 6,9 C 65 % 65 % 1021,8 hPa 0,0 l/m 1,1 km/h (1 Bft) S-SO 157 0,8 C 5,6 C 1,8 km/h (1 Bft)
18.03.2015 20:55 6,3 C 7,0 C 65 % 65 % 1021,8 hPa 0,0 l/m 1,3 km/h (1 Bft) SO 135 0,9 C 5,8 C 1,9 km/h (1 Bft)
18.03.2015 21:00 6,2 C 7,0 C 65 % 65 % 1021,8 hPa 0,0 l/m 0,6 km/h (0 Bft) O-SO 112 0,9 C 5,8 C 0,0 km/h (0 Bft)
18.03.2015 21:05 5,8 C 6,5 C 65 % 65 % 1021,6 hPa 0,0 l/m 0,6 km/h (0 Bft) SO 135 0,4 C 5,4 C 2,6 km/h (1 Bft)
18.03.2015 21:10 5,9 C 6,5 C 65 % 65 % 1021,6 hPa 0,0 l/m 1,3 km/h (1 Bft) S-SO 157 0,4 C 5,4 C 1,8 km/h (1 Bft)
18.03.2015 21:15 5,9 C 6,6 C 65 % 65 % 1021,6 hPa 0,0 l/m 1,8 km/h (1 Bft) SO 135 0,5 C 5,4 C 0,0 km/h (0 Bft)
18.03.2015 21:20 5,1 C 6,2 C 65 % 65 % 1021,6 hPa 0,0 l/m 0,8 km/h (0 Bft) O-SO 112 0,1 C 5,1 C 0,0 km/h (0 Bft)
18.03.2015 21:25 4,6 C 5,6 C 66 % 66 % 1021,5 hPa 0,0 l/m 0,0 km/h (0 Bft) SO 135 -0,2 C 4,2 C 1,8 km/h (1 Bft)
18.03.2015 21:30 5,0 C 5,9 C 67 % 67 % 1021,5 hPa 0,0 l/m 0,6 km/h (0 Bft) O 90 0,3 C 4,0 C 0,0 km/h (0 Bft)
18.03.2015 21:35 4,8 C 5,5 C 67 % 67 % 1021,5 hPa 0,0 l/m 1,4 km/h (1 Bft) S-SO 157 -0,1 C 3,8 C 3,5 km/h (1 Bft)
18.03.2015 21:40 5,0 C 5,7 C 68 % 68 % 1021,5 hPa 0,0 l/m 1,4 km/h (1 Bft) SO 135 0,3 C 4,0 C 0,0 km/h (0 Bft)
18.03.2015 21:45 4,4 C 5,2 C 67 % 67 % 1021,6 hPa 0,0 l/m 1,4 km/h (1 Bft) SO 135 -0,4 C 3,8 C 2,6 km/h (1 Bft)
18.03.2015 21:50 4,4 C 5,2 C 68 % 68 % 1021,6 hPa 0,0 l/m 0,8 km/h (0 Bft) SO 135 -0,2 C 3,7 C 0,0 km/h (0 Bft)
18.03.2015 21:55 4,6 C 5,4 C 68 % 68 % 1021,6 hPa 0,0 l/m 0,8 km/h (0 Bft) SO 135 -0,0 C 3,6 C 2,6 km/h (1 Bft)
18.03.2015 22:00 4,7 C 5,4 C 68 % 68 % 1021,6 hPa 0,0 l/m 1,1 km/h (1 Bft) SO 135 -0,0 C 3,7 C 2,6 km/h (1 Bft)
18.03.2015 22:05 4,4 C 5,0 C 68 % 68 % 1021,6 hPa 0,0 l/m 2,1 km/h (1 Bft) S-SO 157 -0,4 C 3,6 C 3,9 km/h (1 Bft)
18.03.2015 22:10 4,3 C 4,9 C 69 % 69 % 1021,6 hPa 0,0 l/m 2,6 km/h (1 Bft) SO 135 -0,3 C 3,5 C 3,1 km/h (1 Bft)
18.03.2015 22:15 4,3 C 4,7 C 69 % 69 % 1021,6 hPa 0,0 l/m 2,9 km/h (1 Bft) SO 135 -0,5 C 3,6 C 2,7 km/h (1 Bft)
18.03.2015 22:20 4,3 C 4,6 C 69 % 69 % 1021,6 hPa 0,0 l/m 2,4 km/h (1 Bft) S-SO 157 -0,6 C 3,5 C 2,7 km/h (1 Bft)
18.03.2015 22:25 4,4 C 4,6 C 70 % 70 % 1021,4 hPa 0,0 l/m 2,4 km/h (1 Bft) SO 135 -0,4 C 3,7 C 2,4 km/h (1 Bft)
18.03.2015 22:30 4,4 C 4,7 C 70 % 70 % 1021,4 hPa 0,0 l/m 2,4 km/h (1 Bft) S 180 -0,3 C 3,8 C 2,1 km/h (1 Bft)
18.03.2015 22:35 4,5 C 4,8 C 70 % 70 % 1021,4 hPa 0,0 l/m 1,6 km/h (1 Bft) S-SO 157 -0,2 C 4,0 C 0,0 km/h (0 Bft)
18.03.2015 22:40 4,4 C 4,8 C 70 % 70 % 1021,4 hPa 0,0 l/m 0,8 km/h (0 Bft) SO 135 -0,2 C 4,1 C 0,0 km/h (0 Bft)
18.03.2015 22:45 4,5 C 5,0 C 70 % 70 % 1021,6 hPa 0,0 l/m 0,0 km/h (0 Bft) SO 135 -0,0 C 4,0 C 0,0 km/h (0 Bft)
18.03.2015 22:50 4,5 C 5,2 C 70 % 70 % 1021,6 hPa 0,0 l/m 0,0 km/h (0 Bft) S-SO 157 0,2 C 3,9 C 0,0 km/h (0 Bft)
18.03.2015 22:55 4,0 C 4,9 C 70 % 70 % 1021,6 hPa 0,0 l/m 0,0 km/h (0 Bft) SO 135 -0,1 C 3,6 C 0,0 km/h (0 Bft)
18.03.2015 23:00 3,5 C 4,5 C 70 % 70 % 1021,6 hPa 0,0 l/m 0,0 km/h (0 Bft) SO 135 -0,5 C 3,2 C 0,0 km/h (0 Bft)
18.03.2015 23:05 3,5 C 4,4 C 70 % 70 % 1021,2 hPa 0,0 l/m 0,0 km/h (0 Bft) O-SO 112 -0,6 C 2,6 C 0,0 km/h (0 Bft)
18.03.2015 23:10 3,6 C 4,4 C 71 % 71 % 1021,2 hPa 0,0 l/m 0,0 km/h (0 Bft) O-SO 112 -0,4 C 2,5 C 0,0 km/h (0 Bft)
18.03.2015 23:15 3,2 C 4,1 C 71 % 71 % 1021,2 hPa 0,0 l/m 0,0 km/h (0 Bft) O-SO 112 -0,7 C 2,4 C 0,0 km/h (0 Bft)
18.03.2015 23:20 3,3 C 4,1 C 71 % 71 % 1021,2 hPa 0,0 l/m 0,0 km/h (0 Bft) O-SO 112 -0,7 C 2,2 C 0,0 km/h (0 Bft)
18.03.2015 23:25 3,1 C 4,0 C 71 % 71 % 1021,2 hPa 0,0 l/m 0,0 km/h (0 Bft) O-SO 112 -0,8 C 2,2 C 0,0 km/h (0 Bft)
18.03.2015 23:30 3,0 C 3,8 C 71 % 71 % 1021,2 hPa 0,0 l/m 0,0 km/h (0 Bft) S-SO 157 -1,0 C 2,1 C 0,0 km/h (0 Bft)
18.03.2015 23:35 3,2 C 3,8 C 72 % 72 % 1021,2 hPa 0,0 l/m 0,0 km/h (0 Bft) S-SO 157 -0,8 C 2,1 C 0,0 km/h (0 Bft)
18.03.2015 23:40 3,1 C 3,7 C 72 % 72 % 1021,2 hPa 0,0 l/m 0,0 km/h (0 Bft) S 180 -0,9 C 2,2 C 0,0 km/h (0 Bft)
18.03.2015 23:45 3,0 C 3,6 C 72 % 72 % 1021,1 hPa 0,0 l/m 0,0 km/h (0 Bft) O-SO 112 -1,0 C 2,2 C 0,0 km/h (0 Bft)
18.03.2015 23:50 3,0 C 3,6 C 72 % 72 % 1021,1 hPa 0,0 l/m 0,0 km/h (0 Bft) O-SO 112 -1,0 C 2,2 C 0,0 km/h (0 Bft)
18.03.2015 23:55 2,7 C 3,4 C 72 % 72 % 1021,1 hPa 0,0 l/m 0,0 km/h (0 Bft) O-SO 112 -1,2 C 2,0 C 0,0 km/h (0 Bft)
_ Min-Zeit 06:15 06:55 15:40 15:40 23:55 - 23:55 - - 04:15 06:15 23:55
Minimum _ 0,1 C 0,7 C 40 % 40 % 1021,1 hPa - 0,0 km/h (0 Bft) - - -4,5 C -1,2 C 0,0 km/h (0 Bft)
_ Max-Zeit 15:55 15:55 23:55 23:55 12:20 23:55 10:45 - - 12:45 10:00 10:50
Maximum _ 15,1 C 15,1 C 72 % 72 % 1027,1 hPa 0,0 l/m 7,1 km/h
W-NW (2 Bft)
- - 3,2 C 21,2 C 12,7 km/h
W (3 Bft)
Durchschnitt _ 7,1 C 7,6 C 58 % 58 % 1023,8 hPa #0,0 l/m 1,7 km/h (1 Bft) W - -0,3 C 8,9 C 2,2 km/h (1 Bft)